map of GUM home
Great Circle Mapper logo
GUM - Airport
Location
City:  Agana, Guam, United States
Name:Guam International Airport
Old (Alt.):Antonio B. Won Pat International Airport
ICAO / IATA:PGUM / GUM
FAA:GUM

Details
Type:Airport (Part 139 Class I)
Use:Public/Civil, International (customs port of entry)
Latitude:13°29'02"N (13.483953)
Longitude:144°47'50"E (144.797132)
Datum:WGS 1984
Elevation:305 ft (93 m)
Runways:2
Longest:12015 × 150 ft (3662 × 45.5 m), paved

Time
Time Zone:UTC+10
Local Time:

Weather
METAR:PGUM 020054Z VRB03KT 10SM SCT031 SCT049 32/24 A2981 RMK AO2 SLP084 T03170239
TAF:PGUM 012324Z 0200/0306 23008KT P6SM VCSH SCT018 SCT035 SCT120

Related Locations
Nearby:
Farthest:SSA: 12234 mi / 19690 km
Salvador [Deputado Luís Eduardo Magalhães Intl (Dois de Julho Intl)], BA, BR

Find:

   beyond  
but within

Other Information
Maps:
NOTAMs:
Links:
Sources:

  
flag of United States
flag of Guam
  

Airport Diagram

Airport diagram for GUM

Airport diagram PDF

Sectional Chart

Flight Planning
at skyvector.com

Satellite Image

Google Maps Satellite View

 

Copyright © 2004-2014 Karl L. Swartz. All rights reserved.
The Great Circle Mapper name and logo are trademarks of the Great Circle Mapper.
All other trademarks mentioned herein belong to their respective owners.
Please see credits for attibutions and further copyright information.

  Follow gcmap on Facebook Follow gcmap on Twitter

hCard Microformat

Geo Microformat